Погода в Таразе

Погода в Таразе : погода сейчас, прогноз погоды и архив. Всё, что Вы хотите узнать о погоде в Таразе!

Поиск расширенной информации на нашем сайте:

Другие новости

Новости СМИ2

Главная страница сайта

Новости сайта

03.07.2017

Напоминаем, что на нашем специализированном сайте Метеоцентр.Азия вы можете получить высокодетализированные автоматические прогнозы погоды по пунктам России, СНГ и мира в авиационном формате (включающие направление и скорость ветра, видимость, явления погоды, количество и форму облачности, нижнюю и верхнюю границу облачности).

Рекомендуем: Тариф защита ddos.

Погода в Таразе - сегодня

Время (UTC), дата Ветер
(°,м/с) 
Видим.   Явления Облачность Т
(°С)
Тd
(°С)
f(%) Тe
(°С)
Pmin
(гПа)
dP
(гПа)
Po
(мм)
O2
(г/м3)
Тmin Tmax R s Состояние
почвы
12 08.12.17 230 (ЮЗ) 20000 м    10/4 1000 м средняя 
[Sc diur, vesp|Ac As]
+5.6 -1.1 62 +5  1007.2  -1  698  276           
15 08.12.17 120 (ЮВ) 10 км    10/3 1000 м средняя 
[Sc diur, vesp|Ac As]
+4.7 -0.7 68 +4  1008.1  0.7  698  277    +7.8       
18 08.12.17 260 (З) 10 км    10/3 1000 м средняя 
[Sc diur, vesp|Ac As]
+6.7 -1.3 57 +7  1008.6  0.9  699  275    +7.8       
21 08.12.17 260 (З) 10 км    10/3 1000 м средняя 
[Sc diur, vesp|Ac As]
+8.8 -2.5 45 +6  1010.2  701  274           
00 09.12.17 140 (ЮВ) 4{17}  10 км    10/4 1000 м средняя 
[Sc diur, vesp|Ac As]
+7.9 -3.6 44 +7  1014.5  3.8  704  276           
03 09.12.17 270 (З) 11-15{17}  20000 м    10/8 1000 м средняя 
[Sc diur, vesp|Ac As]
+4.9 -1.7 62 +1  1021.9  708  280           
06 09.12.17 230 (ЮЗ) 4{15}  20000 м    8/8 1000 м 
[Sc diur, vesp]
+5.5 +0.6 71 +4  1022.5  0.7  709  280  +3.7         
09 09.12.17 250 (З) 20000 м    6/4 1000 м средняя 
[Sc diur, vesp|Ac lent]
+6.5 -1.2 58 +5  1022.4  0.2  709  279           
12 09.12.17 140 (ЮВ) 20000 м    8/3 1000 м средняя 
[Sc diur, vesp|Ac lent]
+4.2 -0.3 72 +4  1021.9  -1  708  281           
15 09.12.17 130 (ЮВ) 10 км    10/10 1000 м 
[Sc diur, vesp]
+3 +0.3 82 +4  1020.6  -1.5  707  282    +8       
18 09.12.17 320 (СЗ) 4000 м  слаб. снег  10/10 600 м 
[Ns]
-1.2 -2.1 94 -5  1027.2  4.9  710  288    +8       
21 09.12.17 270 (З) 2000 м  снег  10/10 600 м 
[Ns]
-3.2 -4.9 88 -5  1032.3  4.1  714  291           
00 10.12.17 240 (ЮЗ) 2{14}  10 км  {снег}  8/8 1000 м 
[Sc diur, vesp]
-4.2 -6.5 84 -5  1035.1  2.2  715  293           
03 10.12.17 230 (ЮЗ) 20000 м    4/3 1000 м верхняя 
[Sc diur, vesp|Ci sp]
-4.8 -8.4 76 -8  1035.6  0.2  715  294      равномерный
сухой снег
100% 
06 10.12.17 190 (Ю) 20000 м    ясно 
+0.1 -7.5 57 -2  1033.4  -0.5  715  289  -5       
09 10.12.17 240 (ЮЗ) 20000 м    3/3 1000 м 
[Sc diur, vesp]
+1.5 -7.6 51 -1  1032.2  -0.8  714  287           
12 10.12.17 240 (ЮЗ) 20000 м    3/3 1000 м 
[Sc diur, vesp]
-2.7 -8.8 63 -2  1033.7  0.2  715  292           
15 10.12.17 210 (ЮЗ) 10 км    ясно 
-5.6 -9.4 75 -7  1033.4  -1.1  714  294    +2.2       
18 10.12.17 210 (ЮЗ) 10 км    ясно 
-5.7 -9.1 77 -7  1031.3  -2  712  294    +2.2       
21 10.12.17 тихо ()   10 км    ясно 
-7.1 -10.5 77 -7  1031.2  -0.4  712  295           
00 11.12.17 230 (ЮЗ) 10 км    ясно 
-7 -9.9 80 -8  1031.2  712  295           
03 11.12.17 200 (Ю) 20000 м    3/0 верхняя 
[Ci fib]
-9 -10.6 88 -9  1032.9  0.9  713  298        неравномерный
мокрый или
старый снег
100% 
06 11.12.17 020 (С) 20000 м    8/6 1000 м верхняя 
[Sc diur, vesp|Ci sp]
-7 -9.1 85 -8  1032.5  0.3  713  296  -9.3         
09 11.12.17 020 (С) 20000 м    8/6 1000 м верхняя 
[Sc diur, vesp|Ci sp]
-6 -7.9 86 -7  1030.8  -1.3  712  294           
12 11.12.17 030 (СВ) 20000 м    10/10 1000 м 
[Sc diur, vesp]
-7.8 -9.2 90 -9  1032  0.5  712  296           
Время (UTC), дата Ветер
(°,м/с) 
Видим.   Явления Облачность Т
(°С)
Тd
(°С)
f(%) Тe
(°С)
Pmin
(гПа)
dP
(гПа)
Po
(мм)
O2
(г/м3)
Тmin Tmax R s Состояние
почвы

Для получения пояснительной информации подведите курсор к названию столбца.

ПОГОДА в Таразе - архив

Всё, что Вы хотите узнать о погоде в Таразе - удобно и подробно!

Выберите нужную дату (начиная с 1 января 2015* года) и нажмите кнопку "Найти".
Будут отображены архивные сводки погоды по пункту Тараз, начиная с указанной даты.


Отображать данные в формате CSV (для использования в таблицах Excel)


Внимание! Наш архив погоды предназначен исключительно для личного некоммерческого использования в познавательных целях. Если Вам необходимы официальные справки о состоянии погоды (для производственных, юридических, коммерческих и т.п. целей), обращайтесь в органы Росгидромета.

*Примечание: данная дата относится к архиву по метеостанциям СССР (Россия, СНГ, Балтия).
Архив по метеостанциям Зарубежной Европы и Азии (кроме Китая) хранится 10 дней, по другим регионам земного шара (Китай, Африка, Америка, Австралия, Океания) - 1 день.

Тараз - район местоположения метеостанции


Название, широта, долгота, высота метеостанции:
Тараз (город) 42.9°ш. 71.4°д. 651 м над ур. моря [Казахстан]

Дополнительная информация

В oтличие oт бoльшинства пoгoдных сайтoв мы публикуем пoдрoбную метеoинфoрмацию в детальнoм прoфессиoнальнoм фoрмате.

Характеристики температуры и влажнoсти вoздуха измеряются на высoте 2 м в тени вдали oт зданий и деревьев.
Скoрoсть ветра измеряется на высoте 10 м (на урoвне рoста челoвека скoрoсть ветра ниже в 1.5-2 раза). Если метеoстанция нахoдится в гoрoде или в лесу, тo скoрoсть ветра занижена на 2-4 м/с пo сравнению с oткрытым местoм. Скoрoсть ветра над акватoриями крупных рек и oзёр, а также на вершинах хoлмoв на 2-5 м/с выше, чем в oбычных услoвиях.
Атмoсфернoе давление в разных тoчках местнoсти мoжет значительнo oтличаться oт давления на метеoстанции, в зависимoсти oт услoвий рельефа (при пoдъёме на 10 м давление пoнижается примернo на 1 мм рт.ст.).